STARLINK-32088, 59693

Orbit data source: Space-Track

STARLINK-32088, 59693 is a payload satellite owned by SpaceX/Seattle (US) in LEO that was launched on Wed, 08 May 2024 UTC via an FALCON 9 launch vehicle from the Air Force Eastern Test Range (AFETR). Payload-class satellites include a variety of spacecraft equipped with specific instruments for various scientific and technological missions. These include communications satellites like Starlink; space stations such as the ISS; scientific satellites like the Hubble; Earth observation satellites from companies like Planet Labs, Umbra, and HawkEye 360; GPS; miniature CubeSats for education and research; and military/defense satellites.

Loading next visibility...
Identifier
59693, 2024-086M
Orbit
LEO
Country
Flag of USUS
Related business
Manufacturer
SpaceX/Seattle
Mission
Operational Commercial Communications
Bus & Motor
STARLINK V2M, Unknown motor
Mass
730 kg wet, ~700 kg dry
Launch date (UTC)
2024-05-08 (2 years ago)
Launch vehicle
FALCON 9
Launch site
Air Force Eastern Test Range (AFETR)
Object type
Payload
Rocket body
Debris
Shape & HBR
Box + 2 Pan, 17.7 m
Radar Cross Section
33.884 m², Large (>1 m²)

Expand to show TLE details & history
Last TLE update: 2 days ago

TLE from 2 days ago
0 STARLINK-32088
1 59693U 24086M   26171.04689587  .00000460  00000-0  26225-4 0  9997
2 59693  43.0043 194.2896 0001543 280.1749  79.8929 15.27584746119858
Epoch: 2026-06-20T01:07Z
TLE epoch observation values (Epoch: 2026-06-20T01:07:31.803Z)
Latitude
0.00002°
Longitude
-90.86002°
Altitude
482.625 km
Speed
7.626 km/s
True Right ascension
12h 57m 09s
True Declination
0° 00' 00"
Sunlit
Object was in daylight at epoch
Visualization orbit readout
Latitude
Unknown
Longitude
Unknown
Altitude
Unknown
Speed
Unknown
Apparent Right ascension
Unknown
Apparent Declination
Unknown
Sunlit
N/A
Visualization observer readout
Local Sidereal Time
21:25:08
Azimuth
Unknown
Elevation
Unknown
Doppler factor
Unknown
Orbital elements
Apogee altitude
486.038 km
Perigee altitude
483.92 km
Semi-major axis
6,863.116 km
Eccentricity
0.00015
Inclination
43.0043°
RAAN
194.2896°
Arg. of periapsis
280.1749°
True anomaly
79.91031°
Mean anomaly
79.8929°
Eccentric anomaly
79.9016°
Mean motion
3.81734 °/min
Orbital period
94.31 mins
BSTAR
0.000026225
Loading maneuver chart data...
Computing Atmospheric mass density...
Loading historical data...
Loading historical data...
Loading historical data...
Loading historical data...
Loading historical data...
Loading historical data...
Loading historical data...

Documentation

Showing up to 5 results
|